Location: Avon
(37.7514°N, 90.2235°W)
Time: 12:20:57
(UTC+00:00)

A-11 Canister half - Pass Details

Date: 14 November 2025
Orbit: 1526 x 1681 km, 47.3° (Epoch: 05 December)

Event Time Altitude Azimuth Distance (km) Brightness Sun altitude
Rises 00:09:53 0° 232° (SW) 4,900 12.8 -15.8°
Reaches altitude 10° 00:13:04 10° 232° (SW) 3,900 12.1 -16.4°
Maximum altitude 00:23:04 85° 145° (SE) 1,632 9.0 -18.3°
Enters shadow 00:29:37 25° 59° (ENE) 2,831 9.8 -19.6°
